Epoch,demod_status_bits,ebno,lock_status,signal_level,viterbi_ber
1664481028,C;S;V;F,14.0,0x00c000,-38.0,0.00e-0
1664481029,C;S;V;F,13.8,0x00c000,-38.1,
1664481030,,14.8,0x00c000,-37.4,0.00e-0
1664481031,C;S;V;F,14.9,0x00c000,-36.9,0.00e-0
1664481032,C;S;V;F,15.2,0x00c000,-36.4,0.00e-0
1664481033,C;S;V;F,,0x00c000,-37.3,0.00e-0
1664481034,C;S;V;F,14.8,0x00c000,,0.00e-0
1664481035,C;S;V;F,14.4,0x00c000,-37.8,0.00e-0
1664481036,C;S;V;F,14.4,0x00c000,-37.3,0.00e-0
1664481037,C;S;V;F,14.5,0x00c000,-37.9,0.00e-0
1664481038,C;S;V;F,13.8,0x00c000,-38.0,0.00e-0
1664481039,C;S;V;F,14.1,0x00c000,-37.9,0.00e-0
1664481040,C;S;V;F,14.6,0x00c000,-37.3,0.00e-0
1664481041,C;S;V;F,14.5,0x00c000,-37.9,0.00e-0
1664481042,C;S;V;F,13.8,0x00c000,-38.8,0.00e-0
1664481043,C;S;V;F,13.5,0x00c000,-36.9,
1664481044,,14.2,0x00c000,-37.7,0.00e-0
1664481045,C;S;V;F,14.1,0x00c000,-37.8,0.00e-0
1664481046,C;S;V;F,14.3,0x00c000,-37.9,0.00e-0
1664481047,C;S;V;F,,0x00c000,-37.4,0.00e-0
1664481048,C;S;V;F,14.6,0x00c000,,0.00e-0
1664481049,C;S;V;F,14.6,0x00c000,-37.3,0.00e-0
1664481050,C;S;V;F,13.9,0x00c000,-38.3,0.00e-0
1664481051,C;S;V;F,13.8,0x00c000,-38.1,0.00e-0
1664481052,C;S;V;F,14.1,0x00c000,-37.7,0.00e-0
1664481053,C;S;V;F,14.7,0x00c000,-37.3,
1664481054,,14.6,0x00c000,-37.4,0.00e-0
1664481055,C;S;V;F,14.3,0x00c000,-37.8,0.00e-0
1664481056,C;S;V;F,14.6,0x00c000,-37.2,0.00e-0
1664481057,C;S;V;F,,0x00c000,-37.2,8.01e-6
1664481058,C;S;V;F,14.9,0x00c000,,8.01e-6
1664481059,C;S;V;F,14.6,0x00c000,-37.5,0.00e-0
1664481060,C;S;V;F,14.3,0x00c000,-37.4,0.00e-0
1664481062,,14.7,0x00c000,-37.4,
1664481063,C;S;V;F,15.2,0x00c000,-37.0,0.00e-0
1664481064,C;S;V;F,,0x00c000,-36.8,0.00e-0
1664481065,C;S;V;F,15.5,0x00c000,,0.00e-0
1664481066,C;S;V;F,15.1,0x00c000,-36.8,1.51e-7
1664481067,C;S;V;F,15.0,0x00c000,-37.1,0.00e-0
1664481068,C;S;V;F,15.0,0x00c000,-37.1,0.00e-0
1664481069,C;S;V;F,15.2,0x00c000,-36.7,0.00e-0
1664481070,C;S;V;F,15.1,0x00c000,-37.0,0.00e-0
1664481071,C;S;V;F,15.1,0x00c000,-36.8,0.00e-0
1664481072,,15.4,0x00c000,-36.6,
1664481073,C;S;V;F,15.7,0x00c000,-36.4,0.00e-0
1664481074,C;S;V;F,15.4,0x00c000,-36.9,0.00e-0
1664481075,C;S;V;F,,0x00c000,-36.8,0.00e-0
1664481076,C;S;V;F,15.1,0x00c000,-37.1,0.00e-0
1664481077,C;S;V;F,15.2,0x00c000,,0.00e-0
1664481078,C;S;V;F,15.1,0x00c000,-37.0,0.00e-0
1664481079,C;S;V;F,15.0,0x00c000,-37.1,0.00e-0
1664481080,C;S;V;F,15.2,0x00c000,-36.8,0.00e-0
1664481081,C;S;V;F,15.1,0x00c000,-37.1,0.00e-0
1664481082,C;S;V;F,15.2,0x00c000,-36.7,0.00e-0
1664481083,C;S;V;F,15.3,0x00c000,-36.8,0.00e-0
1664481084,,15.3,0x00c000,-37.1,
1664481085,C;S;V;F,14.9,0x00c000,-37.4,0.00e-0
1664481086,C;S;V;F,15.1,0x00c000,-37.0,0.00e-0
1664481087,C;S;V;F,,0x00c000,-37.1,0.00e-0
1664481088,C;S;V;F,15.1,0x00c000,-36.8,0.00e-0
1664481089,C;S;V;F,15.3,0x00c000,,0.00e-0
1664481090,C;S;V;F,15.3,0x00c000,-36.9,0.00e-0
1664481091,C;S;V;F,15.1,0x00c000,-37.3,0.00e-0
1664481092,C;S;V;F,15.6,0x00c000,-36.3,
1664481093,,15.9,0x00c000,-36.2,0.00e-0
1664481094,C;S;V;F,16.1,0x00c000,-36.0,0.00e-0
1664481095,C;S;V;F,15.8,0x00c000,-36.4,0.00e-0
1664481096,C;S;V;F,,0x00c000,-36.4,0.00e-0
1664481097,C;S;V;F,15.7,0x00c000,,0.00e-0
1664481098,C;S;V;F,16.1,0x00c000,-36.0,0.00e-0
1664481099,C;S;V;F,16.2,0x00c000,-36.0,0.00e-0
1664481100,C;S;V;F,15.8,0x00c000,-36.4,0.00e-0
1664481101,C;S;V;F,15.8,0x00c000,-36.2,0.00e-0
1664481102,C;S;V;F,15.9,0x00c000,-36.2,0.00e-0
1664481103,C;S;V;F,15.7,0x00c000,-36.3,0.00e-0
1664481104,C;S;V;F,15.4,0x00c000,-36.4,0.00e-0
1664481105,,15.5,0x00c000,-36.7,
1664481106,C;S;V;F,15.8,0x00c000,-36.1,0.00e-0
1664481107,C;S;V;F,16.0,0x00c000,-36.3,0.00e-0
1664481108,C;S;V;F,,0x00c000,-36.4,0.00e-0
1664481109,C;S;V;F,15.8,0x00c000,,0.00e-0
1664481110,C;S;V;F,15.7,0x00c000,-36.2,0.00e-0
1664481111,C;S;V;F,15.9,0x00c000,-36.1,0.00e-0
1664481112,C;S;V;F,16.0,0x00c000,-36.2,0.00e-0
1664481113,C;S;V;F,16.2,0x00c000,-36.3,0.00e-0
1664481114,C;S;V;F,15.9,0x00c000,-36.3,0.00e-0
1664481115,C;S;V;F,15.9,0x00c000,-36.3,0.00e-0
1664481116,C;S;V;F,15.7,0x00c000,-36.6,
1664481117,,15.5,0x00c000,-36.8,0.00e-0
1664481118,C;S;V;F,,0x00c000,-36.5,0.00e-0
1664481119,C;S;V;F,15.6,0x00c000,-36.4,0.00e-0
1664481120,C;S;V;F,15.7,0x00c000,,0.00e-0
1664481121,C;S;V;F,15.6,0x00c000,-36.7,0.00e-0
1664481122,C;S;V;F,15.7,0x00c000,-36.5,0.00e-0
1664481123,C;S;V;F,15.9,0x00c000,-36.5,0.00e-0
1664481125,C;S;V;F,16.1,0x00c000,-36.3,
1664481126,,15.9,0x00c000,-36.0,0.00e-0
1664481127,C;S;V;F,16.2,0x00c000,-35.9,0.00e-0
1664481128,C;S;V;F,16.4,0x00c000,-35.9,0.00e-0
1664481129,C;S;V;F,,0x00c000,,0.00e-0
1664481132,,16.1,0x00c000,-36.1,
1664481133,C;S;V;F,,0x00c000,-35.9,0.00e-0
1664481134,C;S;V;F,16.4,0x00c000,,0.00e-0
1664481135,C;S;V;F,16.3,0x00c000,-35.7,0.00e-0
1664481136,C;S;V;F,16.7,0x00c000,-35.8,0.00e-0
1664481137,C;S;V;F,16.4,0x00c000,-35.8,0.00e-0
1664481138,C;S;V;F,16.2,0x00c000,-35.7,0.00e-0
1664481139,C;S;V;F,16.3,0x00c000,-35.7,0.00e-0
1664481140,C;S;V;F,16.2,0x00c000,-36.1,0.00e-0
1664481141,C;S;V;F,16.0,0x00c000,-36.1,
1664481142,,16.4,0x00c000,-35.8,0.00e-0
1664481143,C;S;V;F,16.6,0x00c000,-35.6,0.00e-0
1664481144,C;S;V;F,,0x00c000,-36.0,0.00e-0
1664481145,C;S;V;F,16.5,0x00c000,-36.1,0.00e-0
1664481146,C;S;V;F,16.3,0x00c000,,0.00e-0
1664481147,C;S;V;F,16.2,0x00c000,-36.2,0.00e-0
1664481148,C;S;V;F,16.1,0x00c000,-36.1,0.00e-0
1664481149,C;S;V;F,16.2,0x00c000,-36.1,0.00e-0
1664481150,C;S;V;F,16.1,0x00c000,-36.1,0.00e-0
1664481151,C;S;V;F,16.6,0x00c000,-35.6,0.00e-0
1664481152,C;S;V;F,16.5,0x00c000,-35.6,0.00e-0
1664481153,C;S;V;F,16.4,0x00c000,-35.8,0.00e-0
1664481154,C;S;V;F,16.5,0x00c000,-35.7,
1664481155,,16.5,0x00c000,-35.6,0.00e-0
1664481156,C;S;V;F,16.7,0x00c000,-35.6,0.00e-0
1664481157,C;S;V;F,,0x00c000,-35.9,0.00e-0
1664481158,C;S;V;F,16.5,0x00c000,,0.00e-0
1664481159,C;S;V;F,16.6,0x00c000,-35.6,0.00e-0
1664481160,C;S;V;F,16.4,0x00c000,-35.6,0.00e-0
1664481161,C;S;V;F,16.7,0x00c000,-35.6,0.00e-0
1664481162,C;S;V;F,16.6,0x00c000,-35.6,0.00e-0
1664481163,C;S;V;F,16.7,0x00c000,-35.5,0.00e-0
1664481164,,16.8,0x00c000,-35.4,
1664481165,C;S;V;F,16.9,0x00c000,-35.2,0.00e-0
1664481166,C;S;V;F,,0x00c000,-35.2,0.00e-0
1664481167,C;S;V;F,16.8,0x00c000,-35.5,0.00e-0
1664481168,C;S;V;F,16.5,0x00c000,,0.00e-0
1664481169,C;S;V;F,16.6,0x00c000,-35.6,0.00e-0
1664481170,C;S;V;F,16.5,0x00c000,-35.5,0.00e-0
1664481171,C;S;V;F,16.9,0x00c000,-35.5,0.00e-0
1664481172,C;S;V;F,17.1,0x00c000,-35.5,0.00e-0
1664481173,C;S;V;F,17.1,0x00c000,-35.2,0.00e-0
1664481174,C;S;V;F,17.1,0x00c000,-35.2,0.00e-0
1664481175,C;S;V;F,16.8,0x00c000,-35.2,
1664481176,,16.8,0x00c000,-35.1,0.00e-0
1664481177,C;S;V;F,17.2,0x00c000,-35.2,0.00e-0
1664481178,C;S;V;F,17.1,0x00c000,-35.1,0.00e-0
1664481179,C;S;V;F,,0x00c000,,0.00e-0
1664481180,C;S;V;F,17.0,0x00c000,-35.0,0.00e-0
1664481181,C;S;V;F,17.0,0x00c000,-35.4,0.00e-0
1664481182,C;S;V;F,17.3,0x00c000,-35.0,0.00e-0
1664481183,C;S;V;F,17.0,0x00c000,-35.3,0.00e-0
1664481184,C;S;V;F,17.1,0x00c000,-35.0,0.00e-0
1664481185,,17.3,0x00c000,-35.0,
1664481186,C;S;V;F,,,,0.00e-0
1664481188,C;S;V;F,16.9,0x00c000,-35.5,0.00e-0
1664481189,C;S;V;F,17.0,0x00c000,-35.3,0.00e-0
1664481190,C;S;V;F,17.1,0x00c000,-35.1,0.00e-0
1664481191,C;S;V;F,17.0,0x00c000,-35.2,0.00e-0
1664481192,C;S;V;F,17.1,0x00c000,-35.3,
1664481193,,17.1,0x00c000,-35.4,0.00e-0
1664481194,C;S;V;F,16.8,0x00c000,-35.6,0.00e-0
1664481195,C;S;V;F,,0x00c000,-35.6,0.00e-0
1664481196,C;S;V;F,16.5,0x00c000,,0.00e-0
1664481197,C;S;V;F,16.9,0x00c000,-35.4,0.00e-0
1664481198,C;S;V;F,16.6,0x00c000,-35.7,0.00e-0
1664481199,C;S;V;F,16.7,0x00c000,-35.7,0.00e-0
1664481200,C;S;V;F,16.7,0x00c000,-35.6,0.00e-0
1664481201,C;S;V;F,16.8,0x00c000,-35.3,0.00e-0
1664481202,C;S;V;F,17.0,0x00c000,-35.1,
1664481203,,17.1,0x00c000,-34.9,0.00e-0
1664481204,C;S;V;F,17.1,0x00c000,-35.0,0.00e-0
1664481205,C;S;V;F,17.4,0x00c000,-34.9,0.00e-0
1664481206,C;S;V;F,17.2,0x00c000,-35.3,0.00e-0
1664481207,C;S;V;F,,0x00c000,-35.0,0.00e-0
1664481208,C;S;V;F,17.2,0x00c000,,0.00e-0
1664481209,C;S;V;F,17.2,0x00c000,-34.9,0.00e-0
1664481210,C;S;V;F,17.3,0x00c000,-34.8,0.00e-0
1664481211,C;S;V;F,17.7,0x00c000,-34.5,0.00e-0
1664481212,C;S;V;F,17.6,0x00c000,-34.4,0.00e-0
1664481213,C;S;V;F,17.6,0x00c000,-34.4,0.00e-0
1664481214,C;S;V;F,17.8,0x00c000,-34.0,
1664481215,,17.8,0x00c000,-34.2,0.00e-0
1664481216,C;S;V;F,17.8,0x00c000,-34.1,0.00e-0
1664481217,C;S;V;F,,0x00c000,-34.7,0.00e-0
1664481218,C;S;V;F,17.6,0x00c000,,0.00e-0
1664481219,C;S;V;F,17.5,0x00c000,-34.4,0.00e-0
1664481220,C;S;V;F,17.7,0x00c000,-34.7,0.00e-0
1664481221,C;S;V;F,17.8,0x00c000,-34.6,0.00e-0
1664481222,C;S;V;F,17.8,0x00c000,-34.3,0.00e-0
1664481223,C;S;V;F,17.7,0x00c000,-34.0,0.00e-0
1664481224,C;S;V;F,18.1,0x00c000,-34.0,0.00e-0
1664481225,C;S;V;F,17.7,0x00c000,-34.0,
1664481226,,18.1,0x00c000,-34.2,0.00e-0
1664481227,C;S;V;F,18.0,0x00c000,-34.0,0.00e-0
1664481228,C;S;V;F,,0x00c000,-34.4,0.00e-0
1664481229,C;S;V;F,17.8,0x00c000,,0.00e-0
1664481230,C;S;V;F,17.5,0x00c000,-34.4,0.00e-0
1664481231,C;S;V;F,17.9,0x00c000,-34.4,0.00e-0
1664481232,C;S;V;F,17.7,0x00c000,-34.1,0.00e-0
1664481233,C;S;V;F,17.6,0x00c000,-34.4,0.00e-0
1664481234,C;S;V;F,17.8,0x00c000,-34.2,0.00e-0
1664481235,C;S;V;F,17.8,0x00c000,-34.1,0.00e-0
1664481236,C;S;V;F,17.9,0x00c000,-34.3,
1664481237,,17.5,0x00c000,-34.7,0.00e-0
1664481238,C;S;V;F,17.2,0x00c000,-34.7,0.00e-0
1664481239,C;S;V;F,,0x00c000,-34.7,0.00e-0
1664481240,C;S;V;F,17.6,0x00c000,,0.00e-0
1664481241,C;S;V;F,17.5,0x00c000,-34.7,0.00e-0
1664481242,C;S;V;F,17.6,0x00c000,-34.4,0.00e-0
1664481243,C;S;V;F,17.8,0x00c000,-34.4,0.00e-0
1664481244,C;S;V;F,17.7,0x00c000,-34.4,0.00e-0
1664481245,C;S;V;F,17.6,0x00c000,-34.6,0.00e-0
1664481246,C;S;V;F,17.7,0x00c000,-34.7,0.00e-0
1664481247,C;S;V;F,17.7,0x00c000,-34.9,0.00e-0
1664481248,C;S;V;F,17.1,0x00c000,-35.0,
1664481249,,,,,0.00e-0
1664481250,,,0x00c000,-35.3,
1664481251,C;S;V;F,16.7,0x00c000,,0.00e-0
1664481252,C;S;V;F,16.9,0x00c000,-35.3,0.00e-0
1664481253,C;S;V;F,16.8,0x00c000,-35.4,0.00e-0
1664481254,C;S;V;F,16.7,0x00c000,-35.6,0.00e-0
1664481255,C;S;V;F,16.7,0x00c000,-35.5,0.00e-0
1664481256,C;S;V;F,16.7,0x00c000,-35.6,0.00e-0
1664481257,,16.6,0x00c000,-35.8,
1664481258,C;S;V;F,16.5,0x00c000,-36.1,0.00e-0
1664481259,C;S;V;F,16.3,0x00c000,-36.2,0.00e-0
1664481260,C;S;V;F,16.5,0x00c000,-36.5,0.00e-0
1664481261,C;S;V;F,,0x00c000,-36.4,0.00e-0
1664481262,C;S;V;F,16.3,0x00c000,-36.4,0.00e-0
1664481263,C;S;V;F,16.3,0x00c000,,0.00e-0
1664481264,C;S;V;F,16.3,0x00c000,-36.3,0.00e-0
1664481265,C;S;V;F,16.5,0x00c000,-36.0,0.00e-0
1664481266,C;S;V;F,16.8,0x00c000,-35.9,0.00e-0
1664481267,C;S;V;F,16.9,0x00c000,-35.7,0.00e-0
1664481268,C;S;V;F,16.9,0x00c000,-35.5,0.00e-0
1664481269,C;S;V;F,16.8,0x00c000,-35.6,
1664481270,,17.0,0x00c000,-35.5,0.00e-0
1664481271,C;S;V;F,17.1,0x00c000,-35.5,0.00e-0
1664481272,C;S;V;F,,0x00c000,-35.5,0.00e-0
1664481273,C;S;V;F,16.8,0x00c000,-35.6,0.00e-0
1664481274,C;S;V;F,16.9,0x00c000,,0.00e-0
1664481275,C;S;V;F,16.6,0x00c000,-35.6,0.00e-0
1664481276,C;S;V;F,17.0,0x00c000,-35.7,0.00e-0
1664481277,C;S;V;F,16.7,0x00c000,-35.9,0.00e-0
1664481278,C;S;V;F,16.9,0x00c000,-35.7,0.00e-0
1664481279,C;S;V;F,16.9,0x00c000,-35.5,0.00e-0
1664481280,C;S;V;F,16.9,0x00c000,-35.5,0.00e-0
1664481281,C;S;V;F,17.1,0x00c000,-35.5,0.00e-0
1664481282,,16.8,0x00c000,-35.7,
1664481283,C;S;V;F,16.8,0x00c000,-35.7,0.00e-0
1664481284,C;S;V;F,16.7,0x00c000,-36.1,0.00e-0
1664481285,C;S;V;F,,0x00c000,-36.3,0.00e-0
1664481286,C;S;V;F,16.3,0x00c000,-36.6,0.00e-0
1664481287,C;S;V;F,15.9,0x00c000,,0.00e-0
1664481288,C;S;V;F,15.7,0x00c000,-36.8,0.00e-0
1664481289,C;S;V;F,15.8,0x00c000,-36.9,0.00e-0
1664481290,C;S;V;F,15.9,0x00c000,-36.8,0.00e-0
1664481291,C;S;V;F,15.8,0x00c000,-36.5,0.00e-0
1664481292,C;S;V;F,16.0,0x00c000,-36.5,0.00e-0
1664481293,C;S;V;F,15.9,0x00c000,-36.4,0.00e-0
1664481294,C;S;V;F,16.2,0x00c000,-36.3,
1664481295,,16.5,0x00c000,-36.1,0.00e-0
1664481296,C;S;V;F,16.3,0x00c000,-36.1,0.00e-0
1664481297,C;S;V;F,16.4,0x00c000,-36.4,0.00e-0
1664481298,C;S;V;F,,0x00c000,-36.3,0.00e-0
1664481299,C;S;V;F,16.4,0x00c000,,0.00e-0
1664481300,C;S;V;F,16.3,0x00c000,-36.3,0.00e-0
1664481301,C;S;V;F,16.4,0x00c000,-36.2,0.00e-0
1664481302,C;S;V;F,16.4,0x00c000,-36.3,0.00e-0
1664481303,C;S;V;F,16.5,0x00c000,-36.2,0.00e-0
1664481304,C;S;V;F,16.5,0x00c000,-35.9,
1664481305,,16.5,0x00c000,-36.0,0.00e-0
1664481306,C;S;V;F,16.6,0x00c000,-36.1,0.00e-0
1664481307,C;S;V;F,16.1,0x00c000,-36.4,0.00e-0
1664481308,C;S;V;F,,0x00c000,,0.00e-0
1664481309,C;S;V;F,16.3,0x00c000,-36.3,0.00e-0
1664481310,C;S;V;F,16.0,0x00c000,-36.4,0.00e-0
1664481311,C;S;V;F,16.2,0x00c000,-36.4,0.00e-0
1664481313,,15.9,0x00c000,-36.9,
1664481314,C;S;V;F,15.9,0x00c000,-37.0,0.00e-0
1664481315,C;S;V;F,,0x00c000,-36.9,0.00e-0
1664481316,C;S;V;F,16.0,0x00c000,-36.7,0.00e-0
1664481317,C;S;V;F,16.0,0x00c000,,0.00e-0
1664481318,C;S;V;F,16.0,0x00c000,-36.5,0.00e-0
1664481319,C;S;V;F,16.2,0x00c000,-36.4,0.00e-0
1664481320,C;S;V;F,16.0,0x00c000,-36.9,0.00e-0
1664481321,C;S;V;F,15.8,0x00c000,-37.0,0.00e-0
1664481322,C;S;V;F,15.8,0x00c000,-36.9,0.00e-0
1664481323,C;S;V;F,15.8,0x00c000,-36.9,0.00e-0
1664481324,C;S;V;F,15.6,0x00c000,-37.0,0.00e-0
1664481325,C;S;V;F,15.6,0x00c000,-37.1,
1664481326,,16.1,0x00c000,-36.6,0.00e-0
1664481327,C;S;V;F,16.1,0x00c000,-36.8,0.00e-0
1664481328,C;S;V;F,,0x00c000,-36.0,0.00e-0
1664481329,C;S;V;F,16.5,0x00c000,,0.00e-0
1664481330,C;S;V;F,16.9,0x00c000,-35.7,0.00e-0
1664481331,C;S;V;F,16.9,0x00c000,-35.5,0.00e-0
1664481332,C;S;V;F,16.8,0x00c000,-35.5,0.00e-0
1664481333,C;S;V;F,16.9,0x00c000,-35.5,0.00e-0
1664481334,C;S;V;F,16.8,0x00c000,-35.9,0.00e-0
1664481335,C;S;V;F,16.6,0x00c000,-35.7,0.00e-0
1664481336,C;S;V;F,16.8,0x00c000,-35.8,
1664481337,,16.9,0x00c000,-35.6,0.00e-0
1664481338,C;S;V;F,17.1,0x00c000,-35.3,0.00e-0
1664481339,C;S;V;F,17.0,0x00c000,-35.3,0.00e-0
1664481340,C;S;V;F,,0x00c000,-35.3,0.00e-0
1664481341,C;S;V;F,17.1,0x00c000,,0.00e-0
1664481342,C;S;V;F,17.1,0x00c000,-35.4,0.00e-0
1664481343,C;S;V;F,17.0,0x00c000,-35.6,0.00e-0
1664481344,C;S;V;F,16.7,0x00c000,-35.7,0.00e-0
1664481345,C;S;V;F,16.5,0x00c000,-36.1,0.00e-0
1664481346,C;S;V;F,16.5,0x00c000,-36.3,0.00e-0
1664481347,C;S;V;F,16.4,0x00c000,-36.4,0.00e-0
1664481348,C;S;V;F,16.6,0x00c000,-36.1,0.00e-0
1664481349,C;S;V;F,16.9,0x00c000,-35.6,
1664481350,,16.9,0x00c000,-35.5,0.00e-0
1664481351,C;S;V;F,,0x00c000,-35.5,0.00e-0
1664481352,C;S;V;F,16.9,0x00c000,,0.00e-0
1664481353,C;S;V;F,16.9,0x00c000,-35.5,0.00e-0
1664481354,C;S;V;F,17.0,0x00c000,-35.9,0.00e-0
1664481355,C;S;V;F,16.9,0x00c000,-35.6,
1664481356,,16.4,0x00c000,-36.1,0.00e-0
1664481357,C;S;V;F,16.6,0x00c000,-36.1,0.00e-0
1664481358,C;S;V;F,16.4,0x00c000,-36.0,0.00e-0
1664481359,C;S;V;F,,0x00c000,-36.1,0.00e-0
1664481360,C;S;V;F,16.5,0x00c000,-36.0,0.00e-0
1664481361,C;S;V;F,16.5,0x00c000,,0.00e-0
1664481362,C;S;V;F,16.7,0x00c000,-35.7,0.00e-0
1664481363,C;S;V;F,16.9,0x00c000,-35.7,0.00e-0
1664481364,C;S;V;F,16.8,0x00c000,-35.7,0.00e-0
1664481365,C;S;V;F,16.6,0x00c000,-36.3,0.00e-0
1664481366,C;S;V;F,16.6,0x00c000,-36.3,0.00e-0
1664481367,C;S;V;F,16.3,0x00c000,-36.6,0.00e-0
1664481368,C;S;V;F,16.5,0x00c000,-36.4,0.00e-0
1664481369,,16.4,0x00c000,-36.4,
1664481370,C;S;V;F,16.3,0x00c000,-36.4,0.00e-0
1664481371,C;S;V;F,16.3,0x00c000,-36.2,0.00e-0
1664481372,C;S;V;F,,0x00c000,-36.2,0.00e-0
1664481373,C;S;V;F,16.7,0x00c000,-35.9,0.00e-0
1664481374,C;S;V;F,16.8,0x00c000,,0.00e-0
1664481376,C;S;V;F,17.1,0x00c000,-35.3,0.00e-0
1664481377,C;S;V;F,17.4,0x00c000,-35.2,
1664481378,,16.9,0x00c000,-35.4,0.00e-0
1664481379,C;S;V;F,17.0,0x00c000,-35.6,0.00e-0
1664481380,C;S;V;F,,0x00c000,-36.0,0.00e-0
1664481381,C;S;V;F,16.2,0x00c000,,0.00e-0
1664481382,C;S;V;F,16.2,0x00c000,-36.4,0.00e-0
1664481383,C;S;V;F,16.1,0x00c000,-36.4,0.00e-0
1664481384,C;S;V;F,16.0,0x00c000,-36.5,0.00e-0
1664481385,C;S;V;F,15.7,0x00c000,-36.9,0.00e-0
1664481386,C;S;V;F,15.9,0x00c000,-36.7,0.00e-0
1664481387,C;S;V;F,16.2,0x00c000,-36.4,0.00e-0
1664481388,C;S;V;F,16.5,0x00c000,-36.3,0.00e-0
1664481389,C;S;V;F,16.5,0x00c000,-36.1,0.00e-0
1664481390,C;S;V;F,16.7,0x00c000,-36.0,
1664481391,,,0x00c000,-36.0,0.00e-0
1664481392,C;S;V;F,16.7,0x00c000,,0.00e-0
1664481393,C;S;V;F,16.7,0x00c000,-35.9,0.00e-0
1664481394,C;S;V;F,16.7,0x00c000,-35.6,0.00e-0
1664481395,C;S;V;F,16.7,0x00c000,-35.9,0.00e-0
1664481396,C;S;V;F,16.4,0x00c000,-36.1,0.00e-0
1664481397,C;S;V;F,16.3,0x00c000,-36.3,0.00e-0
1664481398,,16.3,0x00c000,-36.3,
1664481399,C;S;V;F,16.4,0x00c000,-36.0,0.00e-0
1664481400,C;S;V;F,16.7,0x00c000,-35.6,0.00e-0
1664481401,C;S;V;F,16.9,0x00c000,-35.5,0.00e-0
1664481402,C;S;V;F,,0x00c000,-35.4,0.00e-0
1664481403,C;S;V;F,17.1,0x00c000,-35.8,0.00e-0
1664481404,C;S;V;F,16.8,0x00c000,,0.00e-0
1664481405,C;S;V;F,16.4,0x00c000,-36.0,0.00e-0
1664481406,C;S;V;F,16.5,0x00c000,-35.9,0.00e-0
1664481407,C;S;V;F,16.7,0x00c000,-35.5,0.00e-0
1664481408,C;S;V;F,17.1,0x00c000,-35.2,0.00e-0
1664481409,C;S;V;F,17.3,0x00c000,-35.2,0.00e-0
1664481410,C;S;V;F,17.3,0x00c000,-34.8,
1664481411,,17.4,0x00c000,-35.0,0.00e-0
1664481412,C;S;V;F,17.4,0x00c000,-34.7,0.00e-0
1664481413,C;S;V;F,,0x00c000,-34.8,0.00e-0
1664481414,C;S;V;F,17.6,0x00c000,-34.4,0.00e-0
1664481415,C;S;V;F,17.7,0x00c000,,0.00e-0
1664481416,C;S;V;F,17.6,0x00c000,-34.3,0.00e-0
1664481417,C;S;V;F,17.7,0x00c000,-34.4,0.00e-0
1664481418,C;S;V;F,17.6,0x00c000,-34.2,0.00e-0
1664481419,C;S;V;F,17.8,0x00c000,-34.4,0.00e-0
1664481420,C;S;V;F,17.8,0x00c000,-34.5,0.00e-0
1664481421,C;S;V;F,17.5,0x00c000,-34.4,0.00e-0
1664481422,C;S;V;F,17.8,0x00c000,-34.6,
1664481423,,17.8,0x00c000,-34.4,0.00e-0
1664481424,C;S;V;F,17.9,0x00c000,-34.4,0.00e-0
1664481425,C;S;V;F,,0x00c000,-34.3,0.00e-0
1664481426,C;S;V;F,17.9,0x00c000,-34.3,0.00e-0
1664481427,C;S;V;F,17.7,0x00c000,,0.00e-0
1664481428,C;S;V;F,17.9,0x00c000,-34.3,0.00e-0
1664481429,C;S;V;F,18.1,0x00c000,-34.0,0.00e-0
1664481430,C;S;V;F,18.0,0x00c000,-33.7,0.00e-0
1664481431,C;S;V;F,18.2,0x00c000,-33.4,0.00e-0
1664481435,C;S;V;F,18.2,0x00c000,-33.2,0.00e-0
1664481436,C;S;V;F,18.3,0x00c000,-33.4,0.00e-0
1664481439,C;S;V;F,18.1,0x00c000,-33.7,0.00e-0
1664481440,C;S;V;F,18.1,0x00c000,-33.9,0.00e-0
1664481441,C;S;V;F,18.1,0x00c000,-34.0,0.00e-0
1664481442,C;S;V;F,17.7,0x00c000,-34.3,
1664481443,,17.5,0x00c000,-34.7,0.00e-0
1664481444,C;S;V;F,17.4,0x00c000,-34.7,0.00e-0
1664481445,C;S;V;F,17.5,0x00c000,-34.8,0.00e-0
1664481446,C;S;V;F,,0x00c000,-34.6,0.00e-0
1664481447,C;S;V;F,17.5,0x00c000,-34.7,0.00e-0
1664481448,C;S;V;F,17.5,0x00c000,,0.00e-0
1664481449,C;S;V;F,17.8,0x00c000,-34.1,0.00e-0
1664481450,C;S;V;F,17.9,0x00c000,-34.0,0.00e-0
1664481451,C;S;V;F,18.0,0x00c000,-33.9,0.00e-0
1664481452,C;S;V;F,18.1,0x00c000,-33.8,0.00e-0
1664481453,C;S;V;F,17.9,0x00c000,-33.7,0.00e-0
1664481454,C;S;V;F,18.1,0x00c000,-33.9,
1664481455,,18.1,0x00c000,-33.7,0.00e-0
1664481456,C;S;V;F,,0x00c000,-34.0,0.00e-0
1664481457,C;S;V;F,18.0,0x00c000,-34.8,0.00e-0
1664481458,C;S;V;F,17.5,0x00c000,,0.00e-0
1664481459,C;S;V;F,17.0,0x00c000,-35.0,0.00e-0
1664481460,C;S;V;F,16.8,0x00c000,-35.8,0.00e-0
1664481461,C;S;V;F,16.3,0x00c000,-36.0,0.00e-0
1664481462,C;S;V;F,16.5,0x00c000,-35.9,0.00e-0
1664481463,C;S;V;F,16.3,0x00c000,-36.0,0.00e-0
1664481464,C;S;V;F,16.5,0x00c000,-36.2,0.00e-0
1664481465,C;S;V;F,16.2,0x00c000,-36.2,0.00e-0
1664481466,,16.4,0x00c000,-36.0,
1664481467,C;S;V;F,16.4,0x00c000,-36.0,0.00e-0
1664481468,C;S;V;F,16.9,0x00c000,-35.6,0.00e-0
1664481469,C;S;V;F,,0x00c000,-35.2,0.00e-0
1664481470,C;S;V;F,16.8,0x00c000,-35.2,0.00e-0
1664481471,C;S;V;F,17.1,0x00c000,,0.00e-0
1664481472,C;S;V;F,17.1,0x00c000,-34.8,0.00e-0
1664481473,C;S;V;F,17.1,0x00c000,-34.9,0.00e-0
1664481474,C;S;V;F,17.1,0x00c000,-34.9,0.00e-0
1664481475,C;S;V;F,17.3,0x00c000,-35.1,0.00e-0
1664481476,C;S;V;F,17.1,0x00c000,-35.3,0.00e-0
1664481477,C;S;V;F,16.7,0x00c000,-35.6,0.00e-0
1664481478,C;S;V;F,16.7,0x00c000,-35.6,
1664481479,,16.6,0x00c000,-35.9,0.00e-0
1664481480,C;S;V;F,16.7,0x00c000,-35.7,0.00e-0
1664481481,C;S;V;F,,0x00c000,,0.00e-0
1664481482,C;S;V;F,16.4,0x00c000,-36.1,0.00e-0
1664481483,C;S;V;F,16.4,0x00c000,-36.1,0.00e-0
1664481484,C;S;V;F,16.5,0x00c000,-36.0,0.00e-0
1664481485,C;S;V;F,16.4,0x00c000,-36.1,0.00e-0
1664481486,C;S;V;F,16.4,0x00c000,-35.9,0.00e-0
1664481487,C;S;V;F,16.8,0x00c000,-35.2,0.00e-0
1664481488,C;S;V;F,17.3,0x00c000,-35.0,0.00e-0
1664481489,C;S;V;F,17.3,0x00c000,-34.7,
1664481490,,17.2,0x00c000,-34.8,0.00e-0
1664481491,C;S;V;F,17.2,0x00c000,-34.8,0.00e-0
1664481492,C;S;V;F,,0x00c000,-34.9,0.00e-0
1664481493,C;S;V;F,17.2,0x00c000,-35.3,0.00e-0
1664481494,C;S;V;F,17.1,0x00c000,,0.00e-0
1664481495,C;S;V;F,16.9,0x00c000,-35.2,0.00e-0
1664481496,C;S;V;F,17.0,0x00c000,-35.4,0.00e-0
1664481497,C;S;V;F,16.7,0x00c000,-35.5,0.00e-0
1664481498,C;S;V;F,17.1,0x00c000,-35.5,0.00e-0
1664481499,C;S;V;F,16.9,0x00c000,-35.2,0.00e-0
1664481501,,,0x00c000,-35.5,
1664481502,C;S;V;F,17.0,0x00c000,,0.00e-0
1664481503,C;S;V;F,16.5,0x00c000,-35.6,0.00e-0
1664481504,C;S;V;F,16.6,0x00c000,-35.9,0.00e-0
1664481505,C;S;V;F,16.5,0x00c000,-35.9,0.00e-0
1664481506,C;S;V;F,16.4,0x00c000,-36.0,
1664481507,,16.5,0x00c000,-36.0,0.00e-0
1664481508,C;S;V;F,16.6,0x00c000,-36.0,0.00e-0
1664481509,C;S;V;F,,0x00c000,-36.0,0.00e-0
1664481510,C;S;V;F,16.3,0x00c000,-36.3,0.00e-0
1664481511,C;S;V;F,16.3,0x00c000,,0.00e-0
1664481512,C;S;V;F,16.2,0x00c000,-36.4,0.00e-0
1664481513,C;S;V;F,16.2,0x00c000,-36.2,0.00e-0
1664481514,C;S;V;F,16.3,0x00c000,-36.0,0.00e-0
1664481515,C;S;V;F,16.6,0x00c000,-35.6,0.00e-0
1664481516,C;S;V;F,17.0,0x00c000,-35.2,0.00e-0
1664481517,C;S;V;F,16.9,0x00c000,-35.2,0.00e-0
1664481518,C;S;V;F,16.9,0x00c000,-35.2,0.00e-0
1664481519,C;S;V;F,17.1,0x00c000,-35.4,
1664481520,,16.5,0x00c000,-35.8,0.00e-0
1664481521,C;S;V;F,16.2,0x00c000,-36.1,0.00e-0
1664481522,C;S;V;F,,0x00c000,-36.4,0.00e-0
1664481523,C;S;V;F,16.0,0x00c000,,0.00e-0
1664481524,C;S;V;F,16.1,0x00c000,-36.3,0.00e-0
1664481525,C;S;V;F,16.2,0x00c000,-36.3,0.00e-0
1664481526,C;S;V;F,16.2,0x00c000,-36.0,0.00e-0
1664481527,C;S;V;F,16.6,0x00c000,-35.6,0.00e-0
1664481528,C;S;V;F,16.6,0x00c000,-35.5,0.00e-0
1664481529,,16.8,0x00c000,-35.6,
1664481530,C;S;V;F,,0x00c000,-35.9,0.00e-0
1664481531,C;S;V;F,16.8,0x00c000,,0.00e-0
1664481532,C;S;V;F,16.4,0x00c000,-36.2,0.00e-0
1664481533,C;S;V;F,16.2,0x00c000,-36.2,0.00e-0
1664481534,C;S;V;F,16.2,0x00c000,-36.3,0.00e-0
1664481535,C;S;V;F,16.1,0x00c000,-36.2,0.00e-0
1664481536,C;S;V;F,16.5,0x00c000,-35.8,0.00e-0
1664481537,C;S;V;F,16.6,0x00c000,-35.6,0.00e-0
1664481538,C;S;V;F,16.8,0x00c000,-35.6,0.00e-0
1664481539,C;S;V;F,16.8,0x00c000,-35.3,
1664481540,,16.7,0x00c000,-35.5,0.00e-0
1664481541,C;S;V;F,,0x00c000,-35.8,0.00e-0
1664481542,C;S;V;F,16.2,0x00c000,,0.00e-0
1664481543,C;S;V;F,16.1,0x00c000,-36.0,0.00e-0
1664481544,C;S;V;F,16.1,0x00c000,-36.3,0.00e-0
1664481545,C;S;V;F,15.8,0x00c000,-36.4,0.00e-0
1664481546,C;S;V;F,16.0,0x00c000,-36.5,0.00e-0
1664481547,C;S;V;F,15.8,0x00c000,-36.3,0.00e-0
1664481548,C;S;V;F,16.5,0x00c000,-36.2,0.00e-0
1664481549,C;S;V;F,16.4,0x00c000,-36.0,0.00e-0
1664481550,C;S;V;F,16.5,0x00c000,-35.7,
1664481551,,16.4,0x00c000,-36.0,0.00e-0
1664481552,C;S;V;F,16.3,0x00c000,-36.3,0.00e-0
1664481553,C;S;V;F,16.1,0x00c000,-36.2,0.00e-0
1664481554,C;S;V;F,,0x00c000,-36.4,0.00e-0
1664481555,C;S;V;F,16.1,0x00c000,-36.8,0.00e-0
1664481556,C;S;V;F,15.8,0x00c000,,0.00e-0
1664481557,C;S;V;F,15.7,0x00c000,-36.9,0.00e-0
1664481558,C;S;V;F,15.9,0x00c000,-36.4,0.00e-0
1664481559,C;S;V;F,16.0,0x00c000,-36.3,0.00e-0
1664481560,C;S;V;F,16.2,0x00c000,-36.1,0.00e-0
1664481561,C;S;V;F,16.3,0x00c000,-36.1,0.00e-0
1664481562,C;S;V;F,16.2,0x00c000,-35.9,0.00e-0
1664481564,,16.1,0x00c000,-36.0,
1664481565,C;S;V;F,,0x00c000,-36.2,0.00e-0
1664481566,C;S;V;F,16.0,0x00c000,-36.4,0.00e-0
1664481567,C;S;V;F,15.6,0x00c000,,0.00e-0
1664481568,C;S;V;F,15.5,0x00c000,-36.6,0.00e-0
1664481569,C;S;V;F,15.5,0x00c000,-36.7,0.00e-0
1664481570,C;S;V;F,15.4,0x00c000,-36.7,0.00e-0
1664481571,C;S;V;F,15.7,0x00c000,-37.0,0.00e-0
1664481572,C;S;V;F,15.5,0x00c000,-36.8,0.00e-0
1664481573,C;S;V;F,15.8,0x00c000,-36.4,0.00e-0
1664481574,C;S;V;F,15.8,0x00c000,-36.4,0.00e-0
1664481575,,16.0,0x00c000,-36.4,